sat.trackr.live / text

‹ back to catalog

GPS BIIF-5 (PRN 30)

NORAD 39533 · 2014-008A

PAYLOAD ACTIVE UNKNOWN

§ Identity

Operator
Country
US
Launch date
2014-02-21
Launch site
AFETR
Launch vehicle
Mass (kg)
RCS (m²)
19.94

Purposes: earth_obs, nav

External: N2YO · Heavens-Above · Gunter

§ Orbital elements

Epoch: 2026-09-19T21:57:08.937792Z

Period
717.97 min
Inclination
53.6634°
Eccentricity
0.0083595
Mean motion
2.00566052 rev/d
Perigee alt
19,960.0 km
Apogee alt
20,404.0 km
Semi-major
26,560.1 km
B*
0.0000e+0
RAAN
145.4534°
Arg perigee
231.5511°
Mean anomaly
127.7665°
Rev number
9,158

§ Raw data

GPS BIIF-5  (PRN 30)1 39533U 14008A   26262.91468678 -.00000017  00000+0  00000+0 0  99902 39533  53.6634 145.4534 0083595 231.5511 127.7665  2.00566052 91589

JSON: /api/v1/satellites/39533 · /tle

For live sub-satellite position, see the globe view (requires WebGL).

§ Visibility from observer

Set your observer location to see the next 7 days of passes ≥ 10°. The values pass through the URL so the page stays shareable.

No JS? Fill the form by hand. The geolocation button needs JavaScript.